Western Prince William Sound (46081)

Conditions for Saturday

Daily
Weekly
Monthly
Marine Data Graph
Ad Blocker Enabled

Marine & Boating Location Search

Enter a coastal zip code for marine weather.

General Information

Location: 60.799 North -148.263 West
Buoy Type: 6-meter NOMAD buoy
Buoy Hull: 6N35
Payload: ARES payload
Owned by: NDBC
Windspeed: Measured by obtained from anemometer
Sea Surface: Measured by Intake

Weather and Wave Data

Time Temp Humidity Wind Pressure
  Air
(°F)
Water
(°F)
  Dir Speed
(kts)
Speed
(mph)
Atmo.
(in)
Tend.
(in)
20:50 58 61 62 SE 3.9 4.5 30.09 -0.02
21:50 58 60 61 SE 5.8 6.7 30.08 -0.03
22:50 57 61 68 SE 5.8 6.7 30.07 -0.02
23:50 57 60 71 South 3.9 4.5 30.07 -0.01
00:50 55 60 78 WSW 5.8 6.7 30.07 -
01:50 54 60 77 SW 5.8 6.7 30.06 -
02:50 53 59 81 SW 5.8 6.7 30.06 -0.01
03:50 53 59 82 WSW 5.8 6.7 30.06 -0.01
04:50 52 58 82 WSW 1.9 2.2 30.04 -0.03
05:50 52 58 85 WSW 3.9 4.5 30.04 -0.03
06:50 52 58 79 SW 5.8 6.7 30.03 -0.02
07:50 52 57 79 WSW 1.9 2.2 30.03 -0.01
08:50 53 58 76 WNW 1.9 2.2 30.02 -0.02
09:50 53 58 77 NNE 1.9 2.2 30.01 -0.02
10:50 53 57 77 North 1.9 2.2 30.00 -0.03
11:50 55 59 71 North 1.9 2.2 29.99 -0.03
12:50 56 60 70 ENE 1.9 2.2 29.98 -0.03
13:50 58 61 56 - 0.0 0.0 29.96 -0.04
14:50 57 60 59 SW 1.9 2.2 29.95 -0.04
15:50 58 61 60 NW 1.9 2.2 29.93 -0.04
16:50 59 62 56 West 1.9 2.2 29.92 -0.04
17:50 58 62 58 West 5.8 6.7 29.91 -0.04
18:50 58 61 61 West 5.8 6.7 29.90 -0.04
19:50 56 59 67 West 9.7 11.2 29.88 -0.04
20:50 56 58 68 West 7.8 8.9 29.87 -0.04
21:50 56 57 68 West 5.8 6.7 29.86 -0.03
22:50 55 57 71 West 5.8 6.7 29.86 -0.03
23:50 54 58 78 West 3.9 4.5 29.85 -0.03
00:50 54 59 75 West 3.9 4.5 29.85 -0.02
01:50 55 58 73 NNE 5.8 6.7 29.83 -0.02
02:50 54 58 74 North 5.8 6.7 29.83 -0.02
03:50 54 58 72 West 1.9 2.2 29.83 -0.01

Detailed Wave Spectra

Time Water Depth Wave Height Spectral Peak Period Average Wave Period Sampling Interval Wave Record
20:00 1401 ft 0.23 ft 2.4 sec 0.6 sec 2400 sec
21:00 1401 ft 0.23 ft 2.8 sec 0.6 sec 2400 sec
22:00 1401 ft 0.23 ft 2.5 sec 0.6 sec 2400 sec
23:00 1401 ft 0.23 ft 2.8 sec 0.6 sec 2400 sec
01:00 1401 ft 0.16 ft 2.7 sec 0.6 sec 2400 sec
02:00 1401 ft 0.16 ft 2.6 sec 0.6 sec 2400 sec
03:00 1401 ft 0.13 ft 2.7 sec 0.6 sec 2400 sec
04:00 1401 ft 0.20 ft 2.4 sec 0.6 sec 2400 sec
05:00 1401 ft 0.16 ft 2.5 sec 0.6 sec 2400 sec
06:00 1401 ft 0.20 ft 2.6 sec 0.6 sec 2400 sec
07:00 1401 ft 0.20 ft 2.5 sec 0.6 sec 2400 sec
08:00 1401 ft 0.23 ft 2.4 sec 0.6 sec 2400 sec
09:00 1401 ft 0.39 ft 2.6 sec 0.6 sec 2400 sec
10:00 1401 ft 0.30 ft 2.7 sec 0.6 sec 2400 sec
11:00 1401 ft 0.23 ft 2.8 sec 0.6 sec 2400 sec
12:00 1401 ft 0.23 ft 2.9 sec 0.6 sec 2400 sec
13:00 1401 ft 0.23 ft 3.1 sec 0.6 sec 2400 sec
14:00 1401 ft 0.36 ft 2.8 sec 0.6 sec 2400 sec
15:00 1401 ft 0.20 ft 2.8 sec 0.6 sec 2400 sec
16:00 1401 ft 0.20 ft 2.6 sec 0.6 sec 2400 sec
17:00 1401 ft 0.36 ft 3.4 sec 0.6 sec 2400 sec
18:00 1401 ft 0.23 ft 2.8 sec 0.6 sec 2400 sec
19:00 1401 ft 0.26 ft 2.5 sec 0.6 sec 2400 sec
20:00 1401 ft 0.16 ft 2.5 sec 0.6 sec 2400 sec
21:00 1401 ft 0.16 ft 2.4 sec 0.6 sec 2400 sec
22:00 1401 ft 0.13 ft 2.3 sec 0.6 sec 2400 sec
23:00 1401 ft 0.13 ft 3.0 sec 0.6 sec 2400 sec
00:00 1401 ft 0.10 ft 2.7 sec 0.6 sec 2400 sec
01:00 1401 ft 0.10 ft 2.4 sec 0.6 sec 2400 sec
02:00 1401 ft 0.23 ft 2.2 sec 0.6 sec 2400 sec
03:00 1401 ft 0.10 ft 2.2 sec 0.6 sec 2400 sec